Terminal Aerodrome Forecast
Issued by NWS

Home | Current Version | Previous Version | Text Only | Print | Product List | Glossary On
Versions: 1 2 3 4 5 6 7 8 9 10 11 12 13 14 15 16 17 18 19 20 21 22 23 24
000
FTUS46 KMTR 302333
TAFSFO
TAF
KSFO 302333Z 3100/0106 29021KT P6SM FEW010 SCT100 SCT180
     FM310300 29015KT P6SM FEW010 SCT100 SCT200
     FM310500 30010KT P6SM FEW010 SCT200
     FM310800 28007KT P6SM OVC008
     FM311700 VRB05KT P6SM FEW010
     FM312100 29018KT P6SM FEW012=

USA.gov is the U.S. government's official web portal to all federal, state and local government web resources and services.